This is the latest recevied weather packets stored in our database for station/object KO4IDC-13. If no packets are shown the sender has not sent any weather packets the latest 10 day(s).
| Time | Temp. | Humidity | Pressure | Rain* | Wind** | Luminosity | Snow |
|---|---|---|---|---|---|---|---|
| 1777985161 | 17.78° C | 71% | 1010.6 hPa | 0 mm | - | 75 W/m² | - |
| 1777984857 | 17.22° C | 71% | 1010.6 hPa | 0 mm | - | 69 W/m² | - |
| 1777984554 | 17.22° C | 71% | 1010.7 hPa | 0 mm | - | 64 W/m² | - |
| 1777984250 | 17.22° C | 71% | 1010.6 hPa | 0 mm | - | 64 W/m² | - |
| 1777983947 | 17.22° C | 71% | 1010.6 hPa | 0 mm | - | 59 W/m² | - |
| 1777983644 | 17.22° C | 71% | 1010.8 hPa | 0 mm | - | 50 W/m² | - |
| 1777983340 | 17.22° C | 71% | 1010.8 hPa | 0 mm | - | 45 W/m² | - |
| 1777983037 | 17.78° C | 70% | 1010.9 hPa | 0 mm | - | 43 W/m² | - |
| 1777982734 | 17.78° C | 69% | 1010.9 hPa | 0 mm | - | 37 W/m² | - |
| 1777982429 | 17.78° C | 69% | 1010.8 hPa | 0 mm | - | 35 W/m² | - |
| 1777982124 | 18.33° C | 67% | 1010.8 hPa | 0 mm | - | 32 W/m² | - |
| 1777981822 | 18.33° C | 67% | 1010.7 hPa | 0 mm | - | 23 W/m² | - |
| 1777981519 | 18.33° C | 66% | 1010.6 hPa | 0 mm | - | 21 W/m² | - |
| 1777981215 | 18.33° C | 66% | 1010.7 hPa | 0 mm | - | 22 W/m² | - |
| 1777980912 | 18.33° C | 65% | 1010.5 hPa | 0 mm | - | 22 W/m² | - |
| 1777980609 | 18.89° C | 65% | 1010.3 hPa | 0 mm | - | 18 W/m² | - |
| 1777980305 | 18.89° C | 64% | 1010.3 hPa | 0 mm | - | 11 W/m² | - |
| 1777980003 | 18.89° C | 64% | 1010.5 hPa | 0 mm | - | 5 W/m² | - |
| 1777979702 | 18.89° C | 65% | 1010.4 hPa | 0 mm | - | 3 W/m² | - |
| 1777979398 | 18.89° C | 64% | 1010.3 hPa | 0 mm | - | 2 W/m² | - |
| 1777979095 | 18.89° C | 64% | 1010.2 hPa | 0 mm | - | 1 W/m² | - |
| 1777978792 | 18.89° C | 64% | 1010.2 hPa | 0 mm | - | 1 W/m² | - |
| 1777978488 | 18.89° C | 64% | 1010.1 hPa | 0 mm | - | 1 W/m² | - |
| 1777978184 | 18.89° C | 64% | 1010.1 hPa | 0 mm | - | 0 W/m² | - |
| 1777977882 | 18.89° C | 63% | 1010 hPa | 0 mm | - | 0 W/m² | - |
* Rain latest hour (hover to see other rain measurements)
** Current wind speed in m/s (hover to see current wind gust speed)